Theta_e
312 310 310 310 309 311 311 311 312 313 315 314 313 313 313 315 316 316 316 317 321 322 323 326 325 325 326 326 325 325 325 323 325 325 327 328 329 328 333 340 340 340 340 340
311 310 312 312 313 313 312 312 313 313 314 314 312 312 313 313 315 316 316 318 318 319 320 323 323 323 324 323 325 323 323 321 321 325 330 334 333 330 329 330 329 330 336 336
310 312 314 314 314 315 313 313 314 314 314 313 313 312 313 313 315 317 317 318 318 319 321 322 323 323 324 324 324 322 321 321 318 318 324 325 325 327 329 328 329 330 334 337
310 312 314 313 313 313 313 313 314 314 313 311 314 313 312 313 313 314 316 317 317 318 320 321 321 322 322 322 322 321 319 318 315 315 316 320 324 324 325 327 327 328 327 328
312 312 312 313 313 313 312 313 313 314 312 311 312 311 313 312 314 313 313 316 316 316 317 320 321 321 321 320 320 318 316 314 314 314 314 315 317 318 320 321 322 323 326 327
311 313 312 312 314 313 313 313 311 310 309 310 310 311 312 312 312 314 315 317 318 318 316 317 320 320 320 318 318 318 318 317 316 315 314 313 313 314 316 321 322 325 326 326
313 313 313 314 313 313 312 309 309 309 310 312 311 312 312 312 315 315 315 316 317 318 316 317 320 320 320 320 319 318 318 317 316 316 317 315 314 313 313 315 317 317 319 319
314 315 314 315 314 314 311 310 313 313 312 313 314 316 315 315 316 316 318 317 316 317 316 319 321 320 320 319 318 318 318 318 318 318 318 318 317 317 317 316 315 314 314 316
313 314 316 315 315 315 315 315 311 316 319 318 315 314 314 315 314 316 317 316 316 318 319 321 320 319 319 318 318 318 318 318 319 319 318 318 318 318 318 317 318 319 318 318
314 315 315 315 315 314 315 314 316 318 320 321 318 317 316 313 315 315 316 317 316 314 318 319 319 319 318 318 318 317 318 317 317 318 318 318 317 317 318 319 319 320 319 319
315 314 315 314 314 313 314 314 315 314 317 322 319 314 311 315 315 316 315 315 315 316 317 316 316 319 318 317 317 317 316 316 316 317 318 317 317 318 318 319 319 317 316 315
314 313 314 314 313 313 316 315 314 314 314 319 320 319 315 313 313 314 315 315 315 316 316 316 316 316 316 317 317 316 316 316 316 316 317 317 316 316 317 317 315 315 316 316
314 312 314 314 311 312 315 316 315 315 315 317 319 314 314 315 315 314 314 316 316 316 316 316 316 315 317 316 316 316 317 317 316 317 316 316 315 316 316 316 316 316 316 316
313 313 314 316 316 315 316 315 315 315 314 314 316 315 314 315 316 315 314 315 316 316 315 316 316 315 315 316 317 316 317 317 316 316 316 316 316 316 316 316 316 316 316 316
311 314 314 314 315 315 316 315 315 316 314 315 314 315 314 314 314 314 315 316 315 315 315 316 316 316 316 315 316 316 317 317 317 317 317 316 316 316 317 317 317 317 317 317
310 311 314 315 314 314 314 313 313 312 312 312 313 314 315 315 314 314 314 315 315 315 315 316 316 316 316 316 316 317 317 316 316 316 317 317 316 316 317 317 317 318 318 318
307 308 310 309 312 312 311 310 313 315 314 316 316 316 315 314 314 314 314 314 314 314 313 313 313 312 314 315 315 315 317 316 315 315 315 315 315 314 314 314 314 314 314 314
305 305 304 306 309 310 309 313 315 313 313 313 311 313 315 313 312 311 314 312 311 311 311 311 312 312 310 310 312 313 314 314 315 315 316 315 314 314 314 313 312 313 312 312
305 306 306 308 305 309 311 314 314 315 315 313 312 313 312 311 311 311 313 311 310 309 309 310 310 310 310 311 311 312 311 311 312 313 313 315 314 313 313 312 311 311 311 311
310 309 310 304 308 311 313 314 313 314 315 312 311 311 310 310 310 309 310 309 308 308 307 307 307 307 307 308 308 309 310 311 312 313 314 314 313 313 312 312 311 311 310 309
309 309 304 305 310 311 312 312 313 313 313 310 309 308 308 307 307 308 308 307 306 306 306 305 304 303 302 303 304 305 306 307 308 308 309 309 310 310 309 309 308 308 308 309
313 311 310 311 314 313 310 312 313 310 308 307 307 307 307 307 307 305 306 306 305 305 304 304 303 302 302 302 303 304 304 304 304 305 305 306 306 307 307 308 307 309 310 311
313 313 309 307 308 309 307 308 306 305 304 305 305 305 307 307 304 306 304 304 304 303 302 302 301 301 300 301 302 303 304 303 304 304 305 306 307 307 308 308 309 310 310 310
309 308 310 307 307 304 305 305 305 304 304 304 305 305 305 304 304 304 304 304 303 302 302 301 300 299 300 300 300 300 301 301 302 303 303 304 305 305 307 309 310 310 310 311
307 306 305 305 305 305 305 305 305 305 305 304 303 303 303 303 303 301 301 301 299 299 300 299 298 298 298 299 299 300 301 302 303 304 304 305 306 307 308 308 307 307 308 309
307 304 301 303 305 305 305 305 304 304 303 302 302 302 303 301 300 300 298 297 299 297 298 297 298 298 298 299 300 301 302 303 304 305 306 306 307 308 309 310 310 310 310 310
Wind_Speed
8 3 7 12 9 10 7 7 11 10 5 1 5 9 12 17 21 25 29 22 30 32 33 39 33 34 34 33 33 31 30 28 30 29 25 35 35 36 20 21 25 27 23 25
5 6 14 10 13 9 11 10 6 6 4 5 8 11 14 6 9 15 21 16 13 12 22 36 35 35 35 32 35 33 32 30 28 28 26 28 27 35 38 32 27 23 24 30
6 11 9 9 11 10 9 6 4 6 5 5 5 8 8 7 8 14 14 13 15 14 22 32 34 35 37 37 36 34 33 32 26 27 32 29 26 19 30 33 34 25 29 25
6 8 5 8 6 4 4 5 5 7 2 3 4 7 8 6 7 7 18 20 21 19 26 33 38 39 39 37 32 28 26 25 26 27 25 25 27 26 28 31 28 31 34 31
12 7 9 7 7 7 8 8 6 4 4 2 1 2 10 7 13 11 11 27 30 27 26 37 43 41 36 32 30 26 23 21 21 20 20 22 24 24 23 26 28 31 32 42
11 14 6 10 12 8 7 3 2 3 1 6 6 6 14 13 7 7 7 22 32 40 32 33 47 45 35 28 23 18 16 16 17 18 19 21 22 23 26 28 28 26 25 28
12 13 11 8 8 14 3 4 5 5 4 14 5 5 13 12 8 11 7 22 35 37 33 36 45 39 33 26 17 15 13 13 12 13 16 18 18 20 21 22 23 26 27 28
5 8 8 9 6 7 9 9 8 8 6 11 2 6 7 8 14 12 8 29 26 26 30 39 44 40 30 20 17 16 15 15 15 12 14 16 17 18 19 19 19 20 21 22
4 5 1 3 1 3 3 1 5 1 3 3 4 7 10 12 10 6 6 21 20 14 27 40 38 29 21 21 21 19 19 22 25 22 20 19 16 16 17 16 15 17 17 17
4 4 3 1 4 3 5 3 1 2 4 6 7 10 10 8 5 9 5 8 17 25 9 23 22 22 25 25 22 21 22 23 24 26 24 19 16 17 18 16 17 18 18 20
3 3 5 1 4 5 3 2 4 4 4 2 3 5 5 2 3 3 2 12 13 5 11 19 13 27 26 21 18 21 25 25 27 28 25 21 21 22 22 22 20 21 22 22
3 2 4 7 7 2 1 3 5 4 4 2 4 6 14 5 7 8 9 2 5 4 4 10 17 12 19 23 26 30 31 28 29 29 28 26 24 22 23 23 23 21 22 23
2 2 4 8 6 6 5 2 2 3 3 7 3 5 5 10 6 19 9 9 11 10 12 15 17 17 16 10 13 18 25 28 29 30 30 29 27 25 25 27 25 25 26 27
4 1 5 5 6 4 10 11 5 3 3 4 9 15 16 10 8 14 17 21 18 17 21 22 30 21 23 23 18 20 25 30 29 30 31 31 28 28 29 28 27 28 29 29
4 1 3 5 7 9 12 10 15 13 15 9 16 13 16 2 5 6 15 17 9 17 23 20 30 34 32 28 30 33 23 12 22 24 27 30 30 30 31 29 28 27 28 30
1 3 3 4 9 12 13 14 20 15 10 11 16 18 2 2 5 7 11 15 16 9 5 5 7 16 15 20 23 26 21 20 21 19 21 22 23 23 23 25 25 26 29 31
5 5 2 4 6 4 8 7 5 2 6 5 5 3 3 4 5 9 7 8 12 12 11 9 12 18 16 17 16 20 19 28 30 27 31 32 32 33 33 34 34 34 37 38
4 5 3 4 3 1 5 2 5 9 5 3 3 7 6 4 11 16 3 10 15 18 20 21 22 22 23 25 26 29 29 29 30 30 33 35 37 38 39 39 38 36 37 40
6 4 1 2 2 6 4 4 3 2 2 5 7 9 10 17 13 9 6 22 21 17 17 18 21 23 24 26 26 29 32 33 35 38 36 39 39 38 38 39 40 41 41 45
5 6 3 2 2 3 0 6 12 5 4 9 10 7 6 13 7 7 20 26 26 28 29 30 30 32 35 34 32 33 30 26 25 24 26 29 32 35 37 39 41 44 48 53
3 2 3 1 3 4 6 14 20 2 3 11 10 11 11 4 8 25 28 29 30 31 37 40 42 42 42 43 43 47 48 49 45 42 41 42 43 44 46 48 48 50 49 47
2 2 1 2 3 5 7 8 3 5 12 17 17 18 21 24 28 32 30 32 38 44 47 46 42 41 39 38 39 43 43 43 45 46 46 49 48 47 46 46 47 42 38 41
2 2 3 5 4 2 7 3 6 12 15 16 22 29 32 27 33 24 35 33 35 38 40 38 38 42 38 35 34 36 39 37 36 36 40 42 42 43 43 43 44 43 43 44
4 5 1 4 2 6 3 6 21 20 23 26 26 27 30 34 36 38 34 34 38 43 40 38 36 36 36 36 38 39 38 38 39 42 42 41 45 48 44 43 44 46 47 42
3 3 3 5 4 19 1 24 27 30 24 23 29 30 30 33 31 41 44 39 43 39 31 37 36 35 38 38 40 38 36 35 36 38 42 44 47 48 49 53 55 53 52 46
2 3 2 4 6 8 20 23 25 23 25 29 32 31 29 33 40 38 42 41 32 37 37 37 35 36 39 38 37 35 34 32 32 36 41 42 44 49 50 51 53 57 51 44
Wind_Direction
285 94 234 239 206 228 233 250 261 277 236 252 254 265 273 275 290 244 245 218 226 229 226 236 231 217 217 221 226 223 226 212 217 221 222 226 222 259 262 231 245 248 245 244
357 255 251 242 257 228 240 240 252 265 281 298 287 284 287 261 259 239 231 226 224 220 228 222 213 206 209 214 221 215 221 221 217 216 209 211 218 215 216 215 229 256 249 252
198 249 272 238 257 254 253 223 243 255 292 306 317 292 302 302 283 277 233 244 258 226 213 202 197 201 206 209 215 215 215 222 223 224 227 228 233 224 219 227 219 225 261 256
240 265 298 317 295 288 234 232 262 290 319 253 79 290 290 289 301 286 284 292 282 228 223 219 205 201 205 208 212 217 215 224 227 225 223 230 235 233 242 235 232 226 247 258
250 267 282 299 263 273 248 236 237 238 247 92 88 273 270 303 286 269 283 299 296 281 248 228 218 212 207 204 202 206 211 216 223 226 230 235 234 233 236 234 239 245 244 242
238 253 181 239 267 262 258 227 30 47 113 273 221 183 285 276 263 299 268 301 298 294 272 243 222 205 194 186 185 195 209 221 233 241 243 239 240 238 239 238 234 234 231 234
252 252 255 250 252 273 251 78 293 294 279 265 258 244 253 278 260 247 299 324 303 280 265 225 203 180 171 171 177 192 203 206 218 233 248 247 248 245 240 239 240 240 244 249
216 278 214 235 186 215 232 199 220 257 250 276 315 235 254 237 262 275 315 355 310 262 211 196 180 172 172 177 192 192 198 206 212 233 249 263 274 264 258 258 261 259 260 257
228 244 196 251 263 98 282 238 174 105 48 334 278 292 303 283 286 243 57 26 347 130 156 167 168 173 184 186 195 206 213 217 219 225 239 246 258 266 268 259 272 269 266 269
273 310 187 257 3 335 163 192 236 90 211 250 239 257 250 301 327 289 119 99 356 5 166 173 187 195 188 191 195 206 220 229 233 231 240 247 254 260 262 259 267 267 274 282
259 212 280 133 187 215 346 343 76 124 180 203 290 260 243 194 238 295 173 143 144 221 6 5 252 202 196 203 220 230 233 239 236 235 239 239 249 253 254 254 274 286 286 284
326 185 218 230 234 208 95 156 136 146 241 228 239 269 261 325 290 181 156 169 184 137 283 323 347 316 239 229 233 236 236 240 238 238 235 234 245 256 257 263 270 284 290 292
339 345 355 344 355 19 27 5 87 107 114 199 225 250 251 317 344 309 296 191 238 269 266 276 299 332 309 252 257 265 241 240 235 233 234 237 242 244 248 253 266 270 275 282
30 96 180 235 240 273 295 294 222 173 209 219 222 270 273 287 301 329 302 273 266 241 256 260 278 295 304 290 268 293 306 242 235 235 238 240 244 243 245 253 260 262 265 271
107 195 225 245 254 264 274 284 287 223 232 224 261 244 258 262 293 306 345 351 300 273 258 254 256 255 279 279 265 264 282 266 236 240 240 239 243 245 247 247 250 257 263 271
18 250 210 247 249 252 250 245 242 264 274 261 260 257 107 213 298 338 348 15 27 16 49 61 16 340 316 295 294 259 233 280 280 264 247 243 243 245 250 254 254 255 259 265
185 167 177 261 232 308 289 244 220 290 348 8 306 351 296 279 318 314 354 3 351 349 342 337 333 328 327 325 306 289 266 269 278 279 276 270 268 268 269 270 267 264 271 273
193 151 152 253 29 305 243 224 135 113 75 65 268 354 314 308 333 325 181 7 344 331 325 315 308 301 312 306 294 291 286 278 274 271 268 265 268 270 270 271 271 269 269 273
204 145 253 150 191 278 345 11 352 35 156 7 351 343 343 346 338 322 262 330 331 332 331 327 317 310 303 296 292 290 287 283 279 274 269 265 264 259 258 259 263 268 273 276
64 67 120 78 150 257 181 319 318 299 240 26 29 5 339 333 317 289 307 313 306 302 302 305 303 302 299 295 293 290 288 283 287 285 279 267 261 262 263 266 270 274 277 280
37 20 149 237 251 284 4 331 321 101 309 352 339 319 314 264 274 298 311 307 305 302 302 301 303 304 300 295 291 285 282 281 282 280 276 272 271 271 273 276 277 280 277 274
143 166 213 192 243 269 345 329 350 328 318 322 320 317 311 306 310 309 297 302 297 298 301 300 301 299 298 289 283 280 278 280 280 281 277 276 276 274 272 270 273 269 265 261
66 174 207 175 232 213 327 112 2 338 316 310 312 318 313 299 310 300 306 298 292 295 297 297 293 297 291 288 282 279 281 284 283 280 276 275 275 273 271 267 259 255 253 257
337 20 66 357 194 325 318 358 340 330 318 315 312 312 309 305 306 302 305 303 300 300 294 292 292 290 288 285 281 279 281 282 278 279 278 274 273 272 265 258 255 253 255 250
226 20 335 270 345 339 221 324 318 316 315 314 312 311 308 308 316 316 306 301 302 296 293 295 294 290 290 290 287 287 286 284 278 279 278 276 275 275 271 266 261 255 250 246
210 190 140 248 313 287 288 300 314 312 314 316 313 310 312 319 313 309 306 303 301 304 300 296 294 290 290 292 293 292 289 289 288 286 284 285 285 285 274 264 256 244 243 250